Location: Newark
(54.9353°N, 24.1167°E)
Time: 09:27:40
(UTC+00:00)

Envisat - Pass Details

Date: 04 October 2020
Orbit: 764 x 766 km, 98.1° (Epoch: 23 October)

Event Time Altitude Azimuth Distance (km) Brightness Sun altitude
Rises 02:51:46 0° 27° (NNE) 3,246 6.9 -15.1°
Reaches altitude 10° 02:55:31 10° 56° (NE) 2,312 6.6 -14.6°
Maximum altitude 02:57:46 13° 82° (E) 2,116 6.6 -14.3°
Drops below altitude 10° 03:00:01 10° 109° (ESE) 2,304 6.4 -14.0°
Sets 03:03:43 0° 137° (SE) 3,224 6.7 -13.5°
